Weather Service Report


650 
ASUS46 KPQR 312010
RWROR 

OREGON REGIONAL WEATHER ROUNDUP
NATIONAL WEATHER SERVICE PORTLAND OR
100 PM PDT MON AUG 31 2015

NOTE: "FAIR" INDICATES FEW OR NO CLOUDS BELOW 12,000 FEET WITH
NO SIGNIFICANT WEATHER AND/OR OBSTRUCTIONS TO VISIBILITY.

ORZ001>013-312100-
NORTHWEST OREGON

  
CITY           SKY/WX    TMP DP  RH WIND       PRES   REMARKS
ASTORIA        CLOUDY    66  60  81 S15G28    30.00F                  
NEWPORT        MOSUNNY   64  55  72 SW10      30.09S                  
PORTLAND       CLOUDY    70  54  56 SW8       30.03F                  
VANCOUVER WA   CLOUDY    70  53  54 W7        30.03F                  
SCAPPOOSE      CLOUDY    69  54  58 S6        30.02F                  
HILLSBORO      CLOUDY    69  53  56 S7        30.02F                  
AURORA         PTSUNNY   71  53  52 SW7       30.04F                  
MCMINNVILLE    CLOUDY    70  54  56 SW9       30.04F                  
SALEM          PTSUNNY   72  50  45 SW6       30.03F                  
CORVALLIS      CLOUDY    70  52  52 CALM      30.06F                  
EUGENE         MOSUNNY   75  48  38 NW7       30.05F                  
$$

ORZ021-028-312100-
SOUTHWEST OREGON

  
CITY           SKY/WX    TMP DP  RH WIND       PRES   REMARKS
NORTH BEND     SUNNY     72  57  60 W8        30.07S                  
BROOKINGS      SUNNY     72  61  68 NW12      30.01F                  
ROSEBURG       SUNNY     71  54  54 VRB3      30.04F                  
SEXTON SUMMIT  SUNNY     62  50  64 N3        30.10S                  
MEDFORD        SUNNY     75  49  39 CALM      30.01F                  
$$

ORZ014>016-041-312100-
COLUMBIA GORGE

  
CITY           SKY/WX    TMP DP  RH WIND       PRES   REMARKS
TROUTDALE      CLOUDY    70  52  52 VRB3      30.02F                  
THE DALLES     MOSUNNY   77  49  37 W10       29.97F                  
$$

ORZ029>031-041-044-049-050-061>064-502-503-505>511-312100-
EASTERN OREGON

  
CITY           SKY/WX    TMP DP  RH WIND       PRES   REMARKS
REDMOND        SUNNY     72  42  34 E7        30.03F                  
BEND           SUNNY     68  41  37 NW5       30.05F                  
PRINEVILLE     SUNNY     70  41  35 VRB5      30.04F                  
KLAMATH FALLS  SUNNY     69  44  40 S6        30.07F                  
LAKEVIEW       SUNNY     75  36  23 S10       30.07F                  
HERMISTON      SUNNY     79  46  31 W13       29.96F                  
PENDLETON      SUNNY     73  43  33 VRB6      29.98F                  
JOHN DAY       MOSUNNY   71  42  35 N5        30.05F                  
MEACHAM        SUNNY     67  42  40 VRB3      30.05F                  
LA GRANDE      SUNNY     72  39  30 E3        30.01F                  
BAKER CITY     SUNNY     72  45  37 E9        30.05F                  
BURNS          SUNNY     69  39  33 CALM      30.08F                  
ROME             N/A     79  34  19 N7        30.03F                  
ONTARIO        SUNNY     76  44  32 VRB3      30.03F                  
$$

Return to Home page


Western Regional Climate Center, wrcc@dri.edu